Year,Month,Day,Hour,Minute,Value (Times are PST for temperature in C)
2014,02,06,00,00,-5.60
2014,02,06,00,01,-5.60
2014,02,06,00,02,-5.70
2014,02,06,00,03,-5.70
2014,02,06,00,04,-5.70
2014,02,06,00,05,-5.70
2014,02,06,00,06,-5.70
2014,02,06,00,07,-5.70
2014,02,06,00,08,-5.70
2014,02,06,00,09,-5.80
2014,02,06,00,10,-5.80
2014,02,06,00,11,-5.80
2014,02,06,00,12,-5.80
2014,02,06,00,13,-5.90
2014,02,06,00,14,-5.90
2014,02,06,00,15,-5.90
2014,02,06,00,16,-6.00
2014,02,06,00,17,-6.00
2014,02,06,00,18,-6.10
2014,02,06,00,19,-6.10
2014,02,06,00,20,-6.10
2014,02,06,00,21,-6.10
2014,02,06,00,22,-6.10
2014,02,06,00,23,-6.20
2014,02,06,00,24,-6.20
2014,02,06,00,25,-6.20
2014,02,06,00,26,-6.20
2014,02,06,00,27,-6.20
2014,02,06,00,28,-6.20
2014,02,06,00,29,-6.20
2014,02,06,00,30,-6.20
2014,02,06,00,31,-6.20
2014,02,06,00,32,-6.20
2014,02,06,00,33,-6.20
2014,02,06,00,34,-6.30
2014,02,06,00,35,-6.30
2014,02,06,00,36,-6.30
2014,02,06,00,37,-6.30
2014,02,06,00,38,-6.30
2014,02,06,00,39,-6.30
2014,02,06,00,40,-6.30
2014,02,06,00,41,-6.30
2014,02,06,00,42,-6.30
2014,02,06,00,43,-6.30
2014,02,06,00,44,-6.30
2014,02,06,00,45,-6.30
2014,02,06,00,46,-6.30
2014,02,06,00,47,-6.30
2014,02,06,00,48,-6.30
2014,02,06,00,49,-6.30
2014,02,06,00,50,-6.30
2014,02,06,00,51,-6.30
2014,02,06,00,52,-6.30
2014,02,06,00,53,-6.40
2014,02,06,00,54,-6.40
2014,02,06,00,55,-6.40
2014,02,06,00,56,-6.40
2014,02,06,00,57,-6.40
2014,02,06,00,58,-6.40
2014,02,06,00,59,-6.40
2014,02,06,01,00,-6.40
2014,02,06,01,01,-6.40
2014,02,06,01,02,-6.40
2014,02,06,01,03,-6.40
2014,02,06,01,04,-6.40
2014,02,06,01,05,-6.30
2014,02,06,01,06,-6.30
2014,02,06,01,07,-6.30
2014,02,06,01,08,-6.30
2014,02,06,01,09,-6.40
2014,02,06,01,10,-6.40
2014,02,06,01,11,-6.40
2014,02,06,01,12,-6.40
2014,02,06,01,13,-6.40
2014,02,06,01,14,-6.40
2014,02,06,01,15,-6.40
2014,02,06,01,16,-6.40
2014,02,06,01,17,-6.40
2014,02,06,01,18,-6.40
2014,02,06,01,19,-6.40
2014,02,06,01,20,-6.40
2014,02,06,01,21,-6.50
2014,02,06,01,22,-6.50
2014,02,06,01,23,-6.50
2014,02,06,01,24,-6.50
2014,02,06,01,25,-6.60
2014,02,06,01,26,-6.60
2014,02,06,01,27,-6.60
2014,02,06,01,28,-6.70
2014,02,06,01,29,-6.70
2014,02,06,01,30,-6.70
2014,02,06,01,31,-6.70
2014,02,06,01,32,-6.80
2014,02,06,01,33,-6.80
2014,02,06,01,34,-6.80
2014,02,06,01,35,-6.80
2014,02,06,01,36,-6.90
2014,02,06,01,37,-6.90
2014,02,06,01,38,-6.90
2014,02,06,01,39,-6.90
2014,02,06,01,40,-6.90
2014,02,06,01,41,-6.90
2014,02,06,01,42,-6.80
2014,02,06,01,43,-6.80
2014,02,06,01,44,-6.80
2014,02,06,01,45,-6.70
2014,02,06,01,46,-6.70
2014,02,06,01,47,-6.70
2014,02,06,01,48,-6.70
2014,02,06,01,49,-6.70
2014,02,06,01,50,-6.70
2014,02,06,01,51,-6.70
2014,02,06,01,52,-6.70
2014,02,06,01,53,-6.70
2014,02,06,01,54,-6.70
2014,02,06,01,55,-6.70
2014,02,06,01,56,-6.70
2014,02,06,01,57,-6.70
2014,02,06,01,58,-6.70
2014,02,06,01,59,-6.70
2014,02,06,02,00,-6.80
2014,02,06,02,01,-6.80
2014,02,06,02,02,-6.80
2014,02,06,02,03,-6.80
2014,02,06,02,04,-6.90
2014,02,06,02,05,-6.90
2014,02,06,02,06,-6.90
2014,02,06,02,07,-6.90
2014,02,06,02,08,-6.90
2014,02,06,02,09,-6.90
2014,02,06,02,10,-6.90
2014,02,06,02,11,-6.90
2014,02,06,02,12,-6.90
2014,02,06,02,13,-6.90
2014,02,06,02,14,-6.90
2014,02,06,02,15,-6.90
2014,02,06,02,16,-6.90
2014,02,06,02,17,-6.90
2014,02,06,02,18,-6.90
2014,02,06,02,19,-6.90
2014,02,06,02,20,-6.80
2014,02,06,02,21,-6.80
2014,02,06,02,22,-6.80
2014,02,06,02,23,-6.80
2014,02,06,02,24,-6.80
2014,02,06,02,25,-6.80
2014,02,06,02,26,-6.80
2014,02,06,02,27,-6.90
2014,02,06,02,28,-6.90
2014,02,06,02,29,-6.90
2014,02,06,02,30,-6.90
2014,02,06,02,31,-6.90
2014,02,06,02,32,-6.80
2014,02,06,02,33,-6.80
2014,02,06,02,34,-6.80
2014,02,06,02,35,-6.80
2014,02,06,02,36,-6.90
2014,02,06,02,37,-6.90
2014,02,06,02,38,-6.90
2014,02,06,02,39,-6.90
2014,02,06,02,40,-6.90
2014,02,06,02,41,-6.90
2014,02,06,02,42,-7.00
2014,02,06,02,43,-7.00
2014,02,06,02,44,-7.10
2014,02,06,02,45,-7.10
2014,02,06,02,46,-7.10
2014,02,06,02,47,-7.10
2014,02,06,02,48,-7.10
2014,02,06,02,49,-7.10
2014,02,06,02,50,-7.00
2014,02,06,02,51,-7.00
2014,02,06,02,52,-7.00
2014,02,06,02,53,-7.00
2014,02,06,02,54,-7.00
2014,02,06,02,55,-6.90
2014,02,06,02,56,-6.90
2014,02,06,02,57,-6.90
2014,02,06,02,58,-7.00
2014,02,06,02,59,-7.00
2014,02,06,03,00,-7.00
2014,02,06,03,01,-7.00
2014,02,06,03,02,-7.00
2014,02,06,03,06,-7.00
2014,02,06,03,07,-7.00
2014,02,06,03,08,-6.90
2014,02,06,03,09,-6.90
2014,02,06,03,10,-6.90
2014,02,06,03,11,-6.90
2014,02,06,03,12,-6.90
2014,02,06,03,13,-6.90
2014,02,06,03,14,-6.90
2014,02,06,03,15,-6.90
2014,02,06,03,16,-6.90
2014,02,06,03,17,-6.90
2014,02,06,03,18,-6.90
2014,02,06,03,19,-6.90
2014,02,06,03,20,-6.90
2014,02,06,03,21,-6.90
2014,02,06,03,22,-6.90
2014,02,06,03,23,-6.90
2014,02,06,03,24,-6.90
2014,02,06,03,25,-6.90
2014,02,06,03,26,-6.90
2014,02,06,03,27,-6.90
2014,02,06,03,28,-6.90
2014,02,06,03,29,-6.90
2014,02,06,03,30,-6.90
2014,02,06,03,31,-7.00
2014,02,06,03,32,-7.00
2014,02,06,03,33,-7.00
2014,02,06,03,34,-7.10
2014,02,06,03,35,-7.10
2014,02,06,03,36,-7.10
2014,02,06,03,37,-7.10
2014,02,06,03,38,-7.10
2014,02,06,03,39,-7.00
2014,02,06,03,40,-7.00
2014,02,06,03,41,-7.00
2014,02,06,03,42,-7.00
2014,02,06,03,43,-7.10
2014,02,06,03,44,-7.00
2014,02,06,03,45,-7.00
2014,02,06,03,46,-7.00
2014,02,06,03,47,-7.10
2014,02,06,03,48,-7.10
2014,02,06,03,49,-7.10
2014,02,06,03,50,-7.10
2014,02,06,03,51,-7.10
2014,02,06,03,52,-7.20
2014,02,06,03,53,-7.20
2014,02,06,03,54,-7.20
2014,02,06,03,55,-7.20
2014,02,06,03,56,-7.20
2014,02,06,03,57,-7.20
2014,02,06,03,58,-7.20
2014,02,06,03,59,-7.10
2014,02,06,04,00,-7.20
2014,02,06,04,01,-7.20
2014,02,06,04,02,-7.20
2014,02,06,04,03,-7.20
2014,02,06,04,04,-7.20
2014,02,06,04,05,-7.20
2014,02,06,04,06,-7.20
2014,02,06,04,07,-7.20
2014,02,06,04,08,-7.20
2014,02,06,04,09,-7.20
2014,02,06,04,10,-7.20
2014,02,06,04,11,-7.20
2014,02,06,04,12,-7.20
2014,02,06,04,13,-7.20
2014,02,06,04,14,-7.20
2014,02,06,04,15,-7.20
2014,02,06,04,16,-7.20
2014,02,06,04,17,-7.20
2014,02,06,04,18,-7.20
2014,02,06,04,19,-7.30
2014,02,06,04,20,-7.30
2014,02,06,04,21,-7.30
2014,02,06,04,22,-7.20
2014,02,06,04,23,-7.20
2014,02,06,04,24,-7.20
2014,02,06,04,25,-7.20
2014,02,06,04,26,-7.20
2014,02,06,04,27,-7.10
2014,02,06,04,28,-7.10
2014,02,06,04,29,-7.10
2014,02,06,04,30,-7.10
2014,02,06,04,31,-7.20
2014,02,06,04,32,-7.20
2014,02,06,04,33,-7.10
2014,02,06,04,34,-7.10
2014,02,06,04,35,-7.00
2014,02,06,04,36,-7.00
2014,02,06,04,37,-7.00
2014,02,06,04,38,-6.90
2014,02,06,04,39,-6.90
2014,02,06,04,40,-6.90
2014,02,06,04,41,-6.90
2014,02,06,04,42,-6.90
2014,02,06,04,43,-6.90
2014,02,06,04,44,-6.90
2014,02,06,04,45,-6.90
2014,02,06,04,46,-6.90
2014,02,06,04,47,-6.90
2014,02,06,04,48,-6.90
2014,02,06,04,49,-6.90
2014,02,06,04,50,-6.90
2014,02,06,04,51,-6.90
2014,02,06,04,52,-6.90
2014,02,06,04,53,-6.90
2014,02,06,04,54,-6.90
2014,02,06,04,55,-7.00
2014,02,06,04,56,-7.00
2014,02,06,04,57,-7.10
2014,02,06,04,58,-7.10
2014,02,06,04,59,-7.10
2014,02,06,05,00,-7.20
2014,02,06,05,01,-7.20
2014,02,06,05,02,-7.30
2014,02,06,05,03,-7.20
2014,02,06,05,04,-7.20
2014,02,06,05,05,-7.10
2014,02,06,05,06,-7.10
2014,02,06,05,07,-7.00
2014,02,06,05,08,-6.90
2014,02,06,05,09,-6.90
2014,02,06,05,10,-6.90
2014,02,06,05,11,-6.90
2014,02,06,05,12,-6.90
2014,02,06,05,13,-7.00
2014,02,06,05,14,-7.00
2014,02,06,05,15,-7.00
2014,02,06,05,16,-7.10
2014,02,06,05,17,-7.10
2014,02,06,05,18,-7.10
2014,02,06,05,19,-7.10
2014,02,06,05,20,-7.20
2014,02,06,05,21,-7.20
2014,02,06,05,22,-7.20
2014,02,06,05,23,-7.20
2014,02,06,05,24,-7.20
2014,02,06,05,25,-7.20
2014,02,06,05,26,-7.20
2014,02,06,05,27,-7.20
2014,02,06,05,28,-7.20
2014,02,06,05,29,-7.20
2014,02,06,05,30,-7.30
2014,02,06,05,31,-7.30
2014,02,06,05,32,-7.30
2014,02,06,05,33,-7.30
2014,02,06,05,34,-7.40
2014,02,06,05,35,-7.40
2014,02,06,05,36,-7.40
2014,02,06,05,37,-7.50
2014,02,06,05,38,-7.50
2014,02,06,05,39,-7.50
2014,02,06,05,40,-7.50
2014,02,06,05,41,-7.50
2014,02,06,05,42,-7.50
2014,02,06,05,43,-7.50
2014,02,06,05,44,-7.50
2014,02,06,05,45,-7.50
2014,02,06,05,46,-7.50
2014,02,06,05,47,-7.50
2014,02,06,05,48,-7.50
2014,02,06,05,49,-7.50
2014,02,06,05,50,-7.50
2014,02,06,05,51,-7.50
2014,02,06,05,52,-7.40
2014,02,06,05,53,-7.40
2014,02,06,05,54,-7.40
2014,02,06,05,55,-7.40
2014,02,06,05,56,-7.40
2014,02,06,05,57,-7.40
2014,02,06,05,58,-7.40
2014,02,06,05,59,-7.40
2014,02,06,06,00,-7.40
2014,02,06,06,01,-7.50
2014,02,06,06,02,-7.50
2014,02,06,06,03,-7.50
2014,02,06,06,04,-7.60
2014,02,06,06,05,-7.60
2014,02,06,06,06,-7.60
2014,02,06,06,07,-7.60
2014,02,06,06,08,-7.60
2014,02,06,06,09,-7.60
2014,02,06,06,10,-7.60
2014,02,06,06,11,-7.60
2014,02,06,06,12,-7.60
2014,02,06,06,13,-7.60
2014,02,06,06,14,-7.60
2014,02,06,06,15,-7.50
2014,02,06,06,16,-7.50
2014,02,06,06,17,-7.50
2014,02,06,06,18,-7.50
2014,02,06,06,19,-7.50
2014,02,06,06,20,-7.50
2014,02,06,06,21,-7.40
2014,02,06,06,22,-7.40
2014,02,06,06,23,-7.40
2014,02,06,06,24,-7.40
2014,02,06,06,25,-7.40
2014,02,06,06,26,-7.40
2014,02,06,06,27,-7.50
2014,02,06,06,28,-7.50
2014,02,06,06,29,-7.50
2014,02,06,06,30,-7.50
2014,02,06,06,31,-7.40
2014,02,06,06,32,-7.40
2014,02,06,06,33,-7.30
2014,02,06,06,34,-7.30
2014,02,06,06,35,-7.30
2014,02,06,06,36,-7.20
2014,02,06,06,37,-7.20
2014,02,06,06,38,-7.20
2014,02,06,06,39,-7.20
2014,02,06,06,40,-7.20
2014,02,06,06,41,-7.30
2014,02,06,06,42,-7.30
2014,02,06,06,43,-7.30
2014,02,06,06,44,-7.30
2014,02,06,06,45,-7.40
2014,02,06,06,46,-7.40
2014,02,06,06,47,-7.40
2014,02,06,06,48,-7.40
2014,02,06,06,49,-7.40
2014,02,06,06,50,-7.40
2014,02,06,06,51,-7.40
2014,02,06,06,52,-7.50
2014,02,06,06,53,-7.50
2014,02,06,06,54,-7.50
2014,02,06,06,55,-7.60
2014,02,06,06,56,-7.60
2014,02,06,06,57,-7.70
2014,02,06,06,58,-7.70
2014,02,06,06,59,-7.70
2014,02,06,07,00,-7.70
2014,02,06,07,01,-7.80
2014,02,06,07,02,-7.80
2014,02,06,07,03,-7.80
2014,02,06,07,04,-7.80
2014,02,06,07,05,-7.70
2014,02,06,07,06,-7.70
2014,02,06,07,07,-7.70
2014,02,06,07,08,-7.70
2014,02,06,07,09,-7.70
2014,02,06,07,10,-7.70
2014,02,06,07,11,-7.70
2014,02,06,07,12,-7.70
2014,02,06,07,13,-7.60
2014,02,06,07,14,-7.60
2014,02,06,07,15,-7.60
2014,02,06,07,16,-7.60
2014,02,06,07,17,-7.70
2014,02,06,07,18,-7.70
2014,02,06,07,19,-7.70
2014,02,06,07,20,-7.70
2014,02,06,07,21,-7.80
2014,02,06,07,22,-7.80
2014,02,06,07,23,-7.80
2014,02,06,07,24,-7.80
2014,02,06,07,25,-7.80
2014,02,06,07,26,-7.80
2014,02,06,07,27,-7.80
2014,02,06,07,28,-7.80
2014,02,06,07,29,-7.80
2014,02,06,07,30,-7.80
2014,02,06,07,31,-7.80
2014,02,06,07,32,-7.80
2014,02,06,07,33,-7.80
2014,02,06,07,34,-7.80
2014,02,06,07,35,-7.80
2014,02,06,07,36,-7.80
2014,02,06,07,37,-7.80
2014,02,06,07,38,-7.80
2014,02,06,07,39,-7.80
2014,02,06,07,40,-7.80
2014,02,06,07,41,-7.80
2014,02,06,07,42,-7.80
2014,02,06,07,43,-7.80
2014,02,06,07,44,-7.80
2014,02,06,07,45,-7.80
2014,02,06,07,46,-7.80
2014,02,06,07,47,-7.80
2014,02,06,07,48,-7.80
2014,02,06,07,49,-7.90
2014,02,06,07,50,-7.90
2014,02,06,07,51,-7.80
2014,02,06,07,52,-7.80
2014,02,06,07,53,-7.80
2014,02,06,07,54,-7.80
2014,02,06,07,55,-7.80
2014,02,06,07,56,-7.80
2014,02,06,07,57,-7.80
2014,02,06,07,58,-7.80
2014,02,06,07,59,-7.70
2014,02,06,08,00,-7.80
2014,02,06,08,01,-7.80
2014,02,06,08,02,-7.80
2014,02,06,08,03,-7.80
2014,02,06,08,04,-7.80
2014,02,06,08,05,-7.80
2014,02,06,08,06,-7.80
2014,02,06,08,07,-7.80
2014,02,06,08,08,-7.80
2014,02,06,08,09,-7.80
2014,02,06,08,10,-7.80
2014,02,06,08,11,-7.80
2014,02,06,08,12,-7.80
2014,02,06,08,13,-7.80
2014,02,06,08,14,-7.70
2014,02,06,08,15,-7.70
2014,02,06,08,16,-7.70
2014,02,06,08,17,-7.70
2014,02,06,08,18,-7.70
2014,02,06,08,19,-7.70
2014,02,06,08,20,-7.70
2014,02,06,08,21,-7.70
2014,02,06,08,22,-7.70
2014,02,06,08,23,-7.60
2014,02,06,08,24,-7.60
2014,02,06,08,25,-7.60
2014,02,06,08,26,-7.60
2014,02,06,08,27,-7.60
2014,02,06,08,28,-7.50
2014,02,06,08,29,-7.50
2014,02,06,08,30,-7.50
2014,02,06,08,31,-7.50
2014,02,06,08,32,-7.40
2014,02,06,08,33,-7.40
2014,02,06,08,34,-7.40
2014,02,06,08,35,-7.40
2014,02,06,08,36,-7.30
2014,02,06,08,37,-7.40
2014,02,06,08,38,-7.40
2014,02,06,08,39,-7.40
2014,02,06,08,40,-7.40
2014,02,06,08,41,-7.40
2014,02,06,08,42,-7.40
2014,02,06,08,43,-7.40
2014,02,06,08,44,-7.40
2014,02,06,08,45,-7.40
2014,02,06,08,46,-7.30
2014,02,06,08,47,-7.30
2014,02,06,08,48,-7.30
2014,02,06,08,49,-7.30
2014,02,06,08,50,-7.20
2014,02,06,08,51,-7.20
2014,02,06,08,52,-7.20
2014,02,06,08,53,-7.20
2014,02,06,08,54,-7.20
2014,02,06,08,55,-7.20
2014,02,06,08,56,-7.20
2014,02,06,08,57,-7.20
2014,02,06,08,58,-7.20
2014,02,06,08,59,-7.10
2014,02,06,09,00,-7.10
2014,02,06,09,01,-7.10
2014,02,06,09,02,-7.00
2014,02,06,09,03,-6.90
2014,02,06,09,04,-6.90
2014,02,06,09,05,-6.80
2014,02,06,09,06,-6.70
2014,02,06,09,07,-6.60
2014,02,06,09,08,-6.60
2014,02,06,09,09,-6.60
2014,02,06,09,10,-6.50
2014,02,06,09,11,-6.30
2014,02,06,09,12,-6.20
2014,02,06,09,13,-6.10
2014,02,06,09,14,-6.10
2014,02,06,09,15,-6.00
2014,02,06,09,16,-6.00
2014,02,06,09,17,-5.90
2014,02,06,09,18,-5.90
2014,02,06,09,19,-5.80
2014,02,06,09,20,-5.80
2014,02,06,09,21,-5.70
2014,02,06,09,22,-5.70
2014,02,06,09,23,-5.60
2014,02,06,09,24,-5.50
2014,02,06,09,25,-5.50
2014,02,06,09,26,-5.40
2014,02,06,09,27,-5.30
2014,02,06,09,28,-5.20
2014,02,06,09,29,-5.20
2014,02,06,09,30,-5.10
2014,02,06,09,31,-5.00
2014,02,06,09,32,-4.90
2014,02,06,09,33,-4.90
2014,02,06,09,34,-4.80
2014,02,06,09,35,-4.80
2014,02,06,09,36,-4.70
2014,02,06,09,37,-4.70
2014,02,06,09,38,-4.60
2014,02,06,09,39,-4.60
2014,02,06,09,40,-4.50
2014,02,06,09,41,-4.50
2014,02,06,09,42,-4.40
2014,02,06,09,43,-4.30
2014,02,06,09,44,-4.30
2014,02,06,09,45,-4.20
2014,02,06,09,46,-4.20
2014,02,06,09,47,-4.20
2014,02,06,09,48,-4.10
2014,02,06,09,49,-4.10
2014,02,06,09,50,-4.10
2014,02,06,09,51,-4.00
2014,02,06,09,52,-3.90
2014,02,06,09,53,-3.80
2014,02,06,09,54,-3.80
2014,02,06,09,55,-3.70
2014,02,06,09,56,-3.70
2014,02,06,09,57,-3.70
2014,02,06,09,58,-3.60
2014,02,06,09,59,-3.60
2014,02,06,10,00,-3.60
2014,02,06,10,01,-3.60
2014,02,06,10,02,-3.60
2014,02,06,10,03,-3.60
2014,02,06,10,04,-3.60
2014,02,06,10,05,-3.60
2014,02,06,10,06,-3.50
2014,02,06,10,07,-3.40
2014,02,06,10,08,-3.40
2014,02,06,10,09,-3.30
2014,02,06,10,10,-3.30
2014,02,06,10,11,-3.30
2014,02,06,10,12,-3.30
2014,02,06,10,13,-3.40
2014,02,06,10,14,-3.40
2014,02,06,10,15,-3.40
2014,02,06,10,16,-3.40
2014,02,06,10,17,-3.40
2014,02,06,10,18,-3.40
2014,02,06,10,19,-3.40
2014,02,06,10,20,-3.40
2014,02,06,10,21,-3.40
2014,02,06,10,22,-3.40
2014,02,06,10,23,-3.40
2014,02,06,10,24,-3.30
2014,02,06,10,25,-3.30
2014,02,06,10,26,-3.30
2014,02,06,10,27,-3.30
2014,02,06,10,28,-3.20
2014,02,06,10,29,-3.20
2014,02,06,10,30,-3.20
2014,02,06,10,31,-3.10
2014,02,06,10,32,-3.10
2014,02,06,10,33,-3.10
2014,02,06,10,34,-3.10
2014,02,06,10,35,-3.10
2014,02,06,10,36,-3.00
2014,02,06,10,37,-3.00
2014,02,06,10,38,-3.00
2014,02,06,10,39,-3.00
2014,02,06,10,40,-3.00
2014,02,06,10,41,-3.00
2014,02,06,10,42,-3.00
2014,02,06,10,43,-3.00
2014,02,06,10,44,-3.00
2014,02,06,10,45,-2.90
2014,02,06,10,46,-2.90
2014,02,06,10,47,-2.90
2014,02,06,10,48,-2.90
2014,02,06,10,49,-2.90
2014,02,06,10,50,-2.90
2014,02,06,10,51,-2.90
2014,02,06,10,52,-2.90
2014,02,06,10,53,-2.90
2014,02,06,10,54,-2.90
2014,02,06,10,55,-2.90
2014,02,06,10,56,-2.80
2014,02,06,10,57,-2.80
2014,02,06,10,58,-2.70
2014,02,06,10,59,-2.70
2014,02,06,11,00,-2.70
2014,02,06,11,01,-2.70
2014,02,06,11,02,-2.70
2014,02,06,11,03,-2.70
2014,02,06,11,04,-2.70
2014,02,06,11,05,-2.70
2014,02,06,11,06,-2.60
2014,02,06,11,07,-2.60
2014,02,06,11,08,-2.50
2014,02,06,11,09,-2.50
2014,02,06,11,10,-2.50
2014,02,06,11,11,-2.50
2014,02,06,11,12,-2.50
2014,02,06,11,13,-2.50
2014,02,06,11,14,-2.40
2014,02,06,11,15,-2.40
2014,02,06,11,16,-2.40
2014,02,06,11,17,-2.40
2014,02,06,11,18,-2.30
2014,02,06,11,19,-2.30
2014,02,06,11,20,-2.20
2014,02,06,11,21,-2.10
2014,02,06,11,22,-2.10
2014,02,06,11,23,-2.10
2014,02,06,11,24,-2.10
2014,02,06,11,25,-2.10
2014,02,06,11,26,-2.10
2014,02,06,11,27,-2.10
2014,02,06,11,28,-2.10
2014,02,06,11,29,-2.10
2014,02,06,11,30,-2.20
2014,02,06,11,31,-2.10
2014,02,06,11,32,-2.10
2014,02,06,11,33,-2.10
2014,02,06,11,34,-2.10
2014,02,06,11,35,-2.00
2014,02,06,11,36,-2.00
2014,02,06,11,37,-1.90
2014,02,06,11,38,-1.90
2014,02,06,11,39,-1.80
2014,02,06,11,40,-1.80
2014,02,06,11,41,-1.80
2014,02,06,11,42,-1.80
2014,02,06,11,43,-1.80
2014,02,06,11,44,-1.80
2014,02,06,11,45,-1.80
2014,02,06,11,46,-1.80
2014,02,06,11,47,-1.70
2014,02,06,11,48,-1.70
2014,02,06,11,49,-1.70
2014,02,06,11,50,-1.60
2014,02,06,11,51,-1.60
2014,02,06,11,52,-1.60
2014,02,06,11,53,-1.60
2014,02,06,11,54,-1.60
2014,02,06,11,55,-1.60
2014,02,06,11,56,-1.50
2014,02,06,11,57,-1.50
2014,02,06,11,58,-1.40
2014,02,06,11,59,-1.40
2014,02,06,12,00,-1.50
2014,02,06,12,01,-1.40
2014,02,06,12,02,-1.50
2014,02,06,12,03,-1.50
2014,02,06,12,04,-1.50
2014,02,06,12,05,-1.60
2014,02,06,12,06,-1.50
2014,02,06,12,07,-1.50
2014,02,06,12,08,-1.50
2014,02,06,12,09,-1.50
2014,02,06,12,10,-1.50
2014,02,06,12,11,-1.40
2014,02,06,12,12,-1.40
2014,02,06,12,13,-1.40
2014,02,06,12,14,-1.40
2014,02,06,12,15,-1.40
2014,02,06,12,16,-1.40
2014,02,06,12,17,-1.40
2014,02,06,12,18,-1.40
2014,02,06,12,19,-1.30
2014,02,06,12,20,-1.30
2014,02,06,12,21,-1.20
2014,02,06,12,22,-1.10
2014,02,06,12,23,-1.10
2014,02,06,12,24,-1.00
2014,02,06,12,25,-0.90
2014,02,06,12,26,-0.90
2014,02,06,12,27,-0.80
2014,02,06,12,28,-0.80
2014,02,06,12,29,-0.80
2014,02,06,12,30,-0.70
2014,02,06,12,31,-0.70
2014,02,06,12,32,-0.60
2014,02,06,12,33,-0.50
2014,02,06,12,34,-0.30
2014,02,06,12,35,-0.30
2014,02,06,12,36,-0.30
2014,02,06,12,37,-0.30
2014,02,06,12,38,-0.40
2014,02,06,12,39,-0.50
2014,02,06,12,40,-0.60
2014,02,06,12,41,-0.60
2014,02,06,12,42,-0.60
2014,02,06,12,43,-0.60
2014,02,06,12,44,-0.50
2014,02,06,12,45,-0.50
2014,02,06,12,46,-0.50
2014,02,06,12,47,-0.60
2014,02,06,12,48,-0.60
2014,02,06,12,49,-0.60
2014,02,06,12,50,-0.70
2014,02,06,12,51,-0.80
2014,02,06,12,52,-0.80
2014,02,06,12,53,-0.80
2014,02,06,12,54,-0.80
2014,02,06,12,55,-0.80
2014,02,06,12,56,-0.90
2014,02,06,12,57,-0.90
2014,02,06,12,58,-0.90
2014,02,06,12,59,-0.90
2014,02,06,13,00,-0.90
2014,02,06,13,01,-0.90
2014,02,06,13,02,-0.80
2014,02,06,13,03,-0.70
2014,02,06,13,04,-0.70
2014,02,06,13,05,-0.60
2014,02,06,13,06,-0.60
2014,02,06,13,07,-0.50
2014,02,06,13,08,-0.50
2014,02,06,13,09,-0.50
2014,02,06,13,10,-0.50
2014,02,06,13,11,-0.50
2014,02,06,13,12,-0.60
2014,02,06,13,13,-0.60
2014,02,06,13,14,-0.60
2014,02,06,13,15,-0.60
2014,02,06,13,16,-0.60
2014,02,06,13,17,-0.60
2014,02,06,13,18,-0.60
2014,02,06,13,19,-0.60
2014,02,06,13,20,-0.50
2014,02,06,13,21,-0.50
2014,02,06,13,22,-0.50
2014,02,06,13,23,-0.50
2014,02,06,13,24,-0.60
2014,02,06,13,25,-0.60
2014,02,06,13,26,-0.70
2014,02,06,13,27,-0.60
2014,02,06,13,28,-0.60
2014,02,06,13,29,-0.70
2014,02,06,13,30,-0.60
2014,02,06,13,31,-0.60
2014,02,06,13,32,-0.60
2014,02,06,13,33,-0.60
2014,02,06,13,34,-0.60
2014,02,06,13,35,-0.60
2014,02,06,13,36,-0.60
2014,02,06,13,37,-0.60
2014,02,06,13,38,-0.60
2014,02,06,13,39,-0.60
2014,02,06,13,40,-0.70
2014,02,06,13,41,-0.70
2014,02,06,13,42,-0.70
2014,02,06,13,43,-0.60
2014,02,06,13,44,-0.60
2014,02,06,13,45,-0.60
2014,02,06,13,46,-0.60
2014,02,06,13,47,-0.60
2014,02,06,13,48,-0.60
2014,02,06,13,49,-0.50
2014,02,06,13,50,-0.50
2014,02,06,13,51,-0.50
2014,02,06,13,52,-0.40
2014,02,06,13,53,-0.30
2014,02,06,13,54,-0.30
2014,02,06,13,55,-0.30
2014,02,06,13,56,-0.30
2014,02,06,13,57,-0.20
2014,02,06,13,58,-0.20
2014,02,06,13,59,-0.20
2014,02,06,14,00,-0.30
2014,02,06,14,01,-0.30
2014,02,06,14,02,-0.40
2014,02,06,14,03,-0.50
2014,02,06,14,04,-0.50
2014,02,06,14,05,-0.50
2014,02,06,14,06,-0.40
2014,02,06,14,07,-0.50
2014,02,06,14,08,-0.40
2014,02,06,14,09,-0.40
2014,02,06,14,10,-0.40
2014,02,06,14,11,-0.40
2014,02,06,14,12,-0.40
2014,02,06,14,13,-0.30
2014,02,06,14,14,-0.30
2014,02,06,14,15,-0.30
2014,02,06,14,16,-0.20
2014,02,06,14,17,-0.20
2014,02,06,14,18,-0.20
2014,02,06,14,19,-0.20
2014,02,06,14,20,-0.20
2014,02,06,14,21,-0.20
2014,02,06,14,22,-0.20
2014,02,06,14,23,-0.20
2014,02,06,14,24,-0.20
2014,02,06,14,25,-0.20
2014,02,06,14,26,-0.20
2014,02,06,14,27,-0.20
2014,02,06,14,28,-0.20
2014,02,06,14,29,-0.20
2014,02,06,14,30,-0.20
2014,02,06,14,31,-0.20
2014,02,06,14,32,-0.10
2014,02,06,14,33,-0.20
2014,02,06,14,34,-0.20
2014,02,06,14,35,-0.20
2014,02,06,14,36,-0.30
2014,02,06,14,37,-0.30
2014,02,06,14,38,-0.20
2014,02,06,14,39,-0.20
2014,02,06,14,40,-0.20
2014,02,06,14,41,-0.20
2014,02,06,14,42,-0.20
2014,02,06,14,43,-0.20
2014,02,06,14,44,-0.20
2014,02,06,14,45,-0.20
2014,02,06,14,46,-0.20
2014,02,06,14,47,-0.20
2014,02,06,14,48,-0.20
2014,02,06,14,49,-0.20
2014,02,06,14,50,-0.20
2014,02,06,14,51,-0.20
2014,02,06,14,52,-0.30
2014,02,06,14,53,-0.30
2014,02,06,14,54,-0.30
2014,02,06,14,55,-0.30
2014,02,06,14,56,-0.30
2014,02,06,14,57,-0.20
2014,02,06,14,58,-0.20
2014,02,06,14,59,-0.20
2014,02,06,15,00,-0.20
2014,02,06,15,01,-0.20
2014,02,06,15,02,-0.20
2014,02,06,15,03,-0.10
2014,02,06,15,04,-0.10
2014,02,06,15,05,-0.10
2014,02,06,15,06,-0.20
2014,02,06,15,07,-0.20
2014,02,06,15,08,-0.20
2014,02,06,15,09,-0.20
2014,02,06,15,10,-0.10
2014,02,06,15,11,-0.10
2014,02,06,15,12,-0.10
2014,02,06,15,13,-0.10
2014,02,06,15,14,-0.10
2014,02,06,15,15,-0.10
2014,02,06,15,16,-0.10
2014,02,06,15,17,-0.10
2014,02,06,15,18,-0.10
2014,02,06,15,19,-0.20
2014,02,06,15,20,-0.30
2014,02,06,15,21,-0.30
2014,02,06,15,22,-0.30
2014,02,06,15,23,-0.30
2014,02,06,15,24,-0.30
2014,02,06,15,25,-0.30
2014,02,06,15,26,-0.30
2014,02,06,15,27,-0.30
2014,02,06,15,28,-0.30
2014,02,06,15,29,-0.30
2014,02,06,15,30,-0.30
2014,02,06,15,31,-0.30
2014,02,06,15,32,-0.30
2014,02,06,15,33,-0.30
2014,02,06,15,34,-0.30
2014,02,06,15,35,-0.30
2014,02,06,15,36,-0.30
2014,02,06,15,37,-0.30
2014,02,06,15,38,-0.30
2014,02,06,15,39,-0.20
2014,02,06,15,40,-0.20
2014,02,06,15,41,-0.20
2014,02,06,15,42,-0.10
2014,02,06,15,43,-0.10
2014,02,06,15,44,-0.10
2014,02,06,15,45,-0.10
2014,02,06,15,46,-0.10
2014,02,06,15,47,0.00
2014,02,06,15,48,0.00
2014,02,06,15,49,0.00
2014,02,06,15,50,0.00
2014,02,06,15,51,0.00
2014,02,06,15,52,0.00
2014,02,06,15,53,-0.10
2014,02,06,15,54,-0.20
2014,02,06,15,55,-0.20
2014,02,06,15,56,-0.20
2014,02,06,15,57,-0.20
2014,02,06,15,58,-0.20
2014,02,06,15,59,-0.20
2014,02,06,16,00,-0.30
2014,02,06,16,01,-0.30
2014,02,06,16,02,-0.40
2014,02,06,16,03,-0.40
2014,02,06,16,04,-0.40
2014,02,06,16,05,-0.40
2014,02,06,16,06,-0.40
2014,02,06,16,07,-0.40
2014,02,06,16,08,-0.40
2014,02,06,16,09,-0.40
2014,02,06,16,10,-0.40
2014,02,06,16,11,-0.40
2014,02,06,16,12,-0.40
2014,02,06,16,13,-0.30
2014,02,06,16,14,-0.30
2014,02,06,16,15,-0.30
2014,02,06,16,16,-0.30
2014,02,06,16,17,-0.30
2014,02,06,16,18,-0.30
2014,02,06,16,19,-0.30
2014,02,06,16,20,-0.30
2014,02,06,16,21,-0.30
2014,02,06,16,22,-0.30
2014,02,06,16,23,-0.40
2014,02,06,16,24,-0.40
2014,02,06,16,25,-0.40
2014,02,06,16,26,-0.40
2014,02,06,16,27,-0.40
2014,02,06,16,28,-0.40
2014,02,06,16,29,-0.40
2014,02,06,16,30,-0.40
2014,02,06,16,31,-0.40
2014,02,06,16,32,-0.30
2014,02,06,16,33,-0.30
2014,02,06,16,34,-0.30
2014,02,06,16,35,-0.30
2014,02,06,16,36,-0.30
2014,02,06,16,37,-0.30
2014,02,06,16,38,-0.30
2014,02,06,16,39,-0.30
2014,02,06,16,40,-0.30
2014,02,06,16,41,-0.40
2014,02,06,16,42,-0.40
2014,02,06,16,43,-0.40
2014,02,06,16,44,-0.40
2014,02,06,16,45,-0.40
2014,02,06,16,46,-0.40
2014,02,06,16,47,-0.40
2014,02,06,16,48,-0.40
2014,02,06,16,49,-0.40
2014,02,06,16,50,-0.40
2014,02,06,16,51,-0.40
2014,02,06,16,52,-0.40
2014,02,06,16,53,-0.50
2014,02,06,16,54,-0.50
2014,02,06,16,55,-0.60
2014,02,06,16,56,-0.60
2014,02,06,16,57,-0.60
2014,02,06,16,58,-0.70
2014,02,06,16,59,-0.70
2014,02,06,17,00,-0.70
2014,02,06,17,01,-0.70
2014,02,06,17,02,-0.80
2014,02,06,17,03,-0.80
2014,02,06,17,04,-0.90
2014,02,06,17,05,-0.90
2014,02,06,17,06,-1.00
2014,02,06,17,07,-1.10
2014,02,06,17,08,-1.10
2014,02,06,17,09,-1.20
2014,02,06,17,10,-1.20
2014,02,06,17,11,-1.30
2014,02,06,17,12,-1.30
2014,02,06,17,13,-1.40
2014,02,06,17,14,-1.40
2014,02,06,17,15,-1.50
2014,02,06,17,16,-1.50
2014,02,06,17,17,-1.60
2014,02,06,17,18,-1.60
2014,02,06,17,19,-1.60
2014,02,06,17,20,-1.70
2014,02,06,17,21,-1.70
2014,02,06,17,22,-1.70